User: anonymous   Login
Location: Dappach
(48.9767°N, 9.6998°E)
Time: 09:26:40
(UTC+00:00)
Language:

Genesis I - Orbit

View from above orbital plane
View from above orbital plane
View from above satellite
View from above satellite

Ground track
Ground track

The orbit data is extracted from the following two-line orbital elements,

1 29252U 06029A   24196.91438356  .00025435  00000-0  63140-3 0  9994
2 29252  64.5156  72.3878 0026802 318.9376  40.9740 15.39930401994853
Epoch (UTC): 14 July 2024 21:56:42
Eccentricity: 0.0026802
inclination: 64.5156°
perigee height: 428 km
apogee height: 464 km
right ascension of ascending node: 72.3878°
argument of perigee: 318.9376°
revolutions per day: 15.39930401
mean anomaly at epoch: 40.9740°
orbit number at epoch: 99485

The dashed part of the orbit path shows where the satellite is in the earth's shadow,  

DLR